Radiation Dose at Monitoring Post of Fukushima Daini Nuclear Power Station
Date,Time,MP-1(microSv/h),MP-2(microSv/h),MP-3(microSv/h),MP-4(microSv/h),MP-5(microSv/h),MP-6(microSv/h),MP-7(microSv/h),Wind Direction,Wind Velocity(m/s),Rain
2015/10/22,00:00,0.511,0.291,0.533,0.490,0.457,0.239,0.210,south-southwest,5.6,No
2015/10/22,00:10,0.515,0.291,0.527,0.486,0.457,0.240,0.208,southwest,5.0,No
2015/10/22,00:20,0.510,0.291,0.533,0.489,0.459,0.239,0.209,southwest,4.7,No
2015/10/22,00:30,0.514,0.290,0.530,0.489,0.456,0.239,0.209,south-southwest,4.2,No
2015/10/22,00:40,0.510,0.291,0.531,0.491,0.457,0.239,0.210,southwest,5.3,No
2015/10/22,00:50,0.516,0.292,0.532,0.488,0.456,0.239,0.209,southwest,6.5,No
2015/10/22,01:00,0.511,0.290,0.531,0.488,0.458,0.240,0.209,southwest,5.7,No
2015/10/22,01:10,0.513,0.291,0.530,0.490,0.458,0.240,0.209,southwest,5.8,No
2015/10/22,01:20,0.513,0.290,0.529,0.488,0.457,0.241,0.210,southwest,6.4,No
2015/10/22,01:30,0.512,0.292,0.532,0.489,0.459,0.239,0.209,southwest,8.1,No
2015/10/22,01:40,0.516,0.292,0.527,0.487,0.456,0.239,0.209,southwest,7.2,No
2015/10/22,01:50,0.509,0.290,0.535,0.490,0.459,0.239,0.210,southwest,6.7,No
2015/10/22,02:00,0.513,0.291,0.529,0.488,0.455,0.240,0.209,southwest,7.5,No
2015/10/22,02:10,0.510,0.290,0.531,0.491,0.459,0.240,0.209,southwest,6.7,No
2015/10/22,02:20,0.513,0.292,0.530,0.486,0.456,0.241,0.211,southwest,7.0,No
2015/10/22,02:30,0.512,0.290,0.533,0.491,0.457,0.240,0.210,southwest,6.7,No
2015/10/22,02:40,0.515,0.291,0.530,0.489,0.458,0.239,0.210,west-southwest,4.9,No
2015/10/22,02:50,0.512,0.290,0.532,0.488,0.456,0.239,0.210,southwest,3.9,No
2015/10/22,03:00,0.511,0.291,0.530,0.489,0.460,0.238,0.209,west-southwest,3.5,No
2015/10/22,03:10,0.513,0.292,0.532,0.487,0.456,0.239,0.210,west-southwest,3.2,No
2015/10/22,03:20,0.512,0.290,0.530,0.490,0.461,0.239,0.209,west-southwest,3.6,No
2015/10/22,03:30,0.515,0.291,0.529,0.487,0.458,0.240,0.210,west-southwest,3.1,No
2015/10/22,03:40,0.510,0.291,0.532,0.492,0.458,0.239,0.210,west-southwest,2.5,No
2015/10/22,03:50,0.515,0.290,0.529,0.487,0.457,0.239,0.210,west-southwest,2.4,No
2015/10/22,04:00,0.510,0.291,0.532,0.490,0.458,0.239,0.210,west-southwest,3.6,No
2015/10/22,04:10,0.514,0.290,0.530,0.488,0.458,0.239,0.210,west-southwest,2.7,No
2015/10/22,04:20,0.512,0.291,0.534,0.488,0.459,0.239,0.210,west,2.4,No
2015/10/22,04:30,0.512,0.292,0.531,0.490,0.460,0.239,0.209,northwest,1.2,No
2015/10/22,04:40,0.515,0.290,0.533,0.487,0.457,0.239,0.211,north-northwest,1.2,No
2015/10/22,04:50,0.512,0.293,0.532,0.490,0.457,0.239,0.210,north-northeast,4.2,No
2015/10/22,05:00,0.515,0.291,0.533,0.488,0.460,0.239,0.210,north,7.9,No
2015/10/22,05:10,0.512,0.293,0.533,0.489,0.457,0.240,0.210,north,8.8,No
2015/10/22,05:20,0.515,0.293,0.530,0.491,0.459,0.240,0.209,north,9.9,No
2015/10/22,05:30,0.515,0.291,0.534,0.488,0.458,0.240,0.210,north-northwest,8.5,No
2015/10/22,05:40,0.513,0.291,0.530,0.490,0.456,0.240,0.211,north,7.3,No
2015/10/22,05:50,0.516,0.292,0.534,0.487,0.457,0.240,0.210,north-northwest,6.4,No
2015/10/22,06:00,0.512,0.291,0.530,0.490,0.456,0.239,0.209,north-northwest,9.2,No
2015/10/22,06:10,0.515,0.292,0.531,0.490,0.457,0.239,0.211,north-northwest,9.8,No
2015/10/22,06:20,0.514,0.290,0.533,0.487,0.456,0.239,0.210,north-northwest,9.2,No
2015/10/22,06:30,0.513,0.292,0.529,0.489,0.456,0.239,0.209,north-northwest,10.0,No
2015/10/22,06:40,0.516,0.292,0.535,0.486,0.460,0.240,0.210,north-northwest,9.0,No
2015/10/22,06:50,0.511,0.289,0.529,0.489,0.456,0.239,0.210,north-northwest,7.8,No
2015/10/22,07:00,0.515,0.292,0.532,0.487,0.459,0.240,0.209,north-northwest,7.9,No
2015/10/22,07:10,0.510,0.290,0.529,0.488,0.455,0.240,0.209,north,8.4,No
2015/10/22,07:20,0.513,0.291,0.532,0.487,0.457,0.238,0.209,north,7.7,No
2015/10/22,07:30,0.511,0.292,0.531,0.487,0.459,0.239,0.210,north-northwest,7.6,No
2015/10/22,07:40,0.512,0.291,0.528,0.487,0.456,0.241,0.209,north,7.3,No
2015/10/22,07:50,0.514,0.292,0.532,0.485,0.460,0.239,0.209,north-northwest,6.7,No
2015/10/22,08:00,0.510,0.290,0.528,0.488,0.454,0.239,0.209,north,7.8,No
2015/10/22,08:10,0.514,0.291,0.534,0.486,0.460,0.239,0.210,north,8.1,No
2015/10/22,08:20,0.511,0.289,0.528,0.488,0.454,0.238,0.208,north,6.6,No
2015/10/22,08:30,0.515,0.291,0.532,0.485,0.459,0.239,0.210,north,7.9,No
2015/10/22,08:40,0.510,0.290,0.527,0.487,0.455,0.240,0.208,north,8.6,No
2015/10/22,08:50,0.513,0.291,0.533,0.488,0.458,0.238,0.210,north-northwest,7.7,No
2015/10/22,09:00,0.511,0.289,0.530,0.487,0.454,0.239,0.209,north,8.4,No
2015/10/22,09:10,0.513,0.290,0.533,0.488,0.457,0.238,0.208,north,8.7,No
2015/10/22,09:20,0.513,0.289,0.527,0.483,0.454,0.239,0.208,north,8.0,No
2015/10/22,09:30,0.509,0.290,0.534,0.487,0.459,0.238,0.208,north,7.5,No
2015/10/22,09:40,0.514,0.291,0.527,0.483,0.456,0.239,0.209,north,5.9,No
2015/10/22,09:50,0.509,0.290,0.535,0.489,0.460,0.239,0.209,north,6.3,No
2015/10/22,10:00,0.513,0.290,0.528,0.487,0.455,0.240,0.208,north-northeast,6.9,No
2015/10/22,10:10,0.510,0.288,0.532,0.483,0.460,0.239,0.210,north,6.4,No
2015/10/22,10:20,0.513,0.292,0.529,0.490,0.458,0.237,0.208,north,6.7,Yes
2015/10/22,10:30,0.514,0.289,0.530,0.486,0.457,0.240,0.209,north,6.1,No
2015/10/22,10:40,0.513,0.292,0.531,0.489,0.459,0.238,0.209,north,5.6,No
2015/10/22,10:50,0.514,0.290,0.528,0.488,0.455,0.239,0.209,north,4.9,No
2015/10/22,11:00,0.511,0.291,0.532,0.488,0.461,0.238,0.210,north,6.4,No
2015/10/22,11:10,0.515,0.290,0.529,0.491,0.456,0.240,0.209,north-northeast,6.7,No
2015/10/22,11:20,0.510,0.290,0.533,0.486,0.460,0.239,0.210,north,7.1,No
2015/10/22,11:30,0.516,0.291,0.530,0.491,0.455,0.238,0.209,north,6.2,No
2015/10/22,11:40,0.511,0.291,0.534,0.486,0.459,0.237,0.210,north,4.2,Yes
2015/10/22,11:50,0.517,0.290,0.529,0.489,0.456,0.239,0.209,north,4.9,Yes
2015/10/22,12:00,0.513,0.292,0.535,0.486,0.461,0.240,0.210,north,4.5,Yes
2015/10/22,12:10,0.516,0.291,0.530,0.492,0.458,0.240,0.209,north-northeast,2.0,Yes
2015/10/22,12:20,0.511,0.290,0.534,0.486,0.460,0.239,0.211,north,4.2,Yes
2015/10/22,12:30,0.513,0.291,0.530,0.492,0.456,0.239,0.210,north,4.3,Yes
2015/10/22,12:40,0.512,0.291,0.534,0.486,0.461,0.240,0.210,north-northeast,1.9,No
2015/10/22,12:50,0.514,0.290,0.530,0.490,0.456,0.238,0.209,north,2.8,No
2015/10/22,13:00,0.512,0.292,0.531,0.490,0.460,0.241,0.210,north,0.8,Yes
2015/10/22,13:10,0.514,0.291,0.531,0.489,0.457,0.239,0.209,north,4.7,No
2015/10/22,13:20,0.514,0.291,0.531,0.488,0.459,0.240,0.211,north,4.3,No
2015/10/22,13:30,0.515,0.292,0.532,0.487,0.459,0.239,0.209,north,2.8,Yes
2015/10/22,13:40,0.513,0.291,0.531,0.489,0.458,0.240,0.210,north,1.0,Yes
2015/10/22,13:50,0.514,0.290,0.533,0.487,0.458,0.238,0.209,north,4.1,Yes
2015/10/22,14:00,0.514,0.291,0.531,0.490,0.458,0.240,0.210,north,4.1,Yes
2015/10/22,14:10,0.514,0.291,0.534,0.486,0.459,0.239,0.209,north,3.6,No
2015/10/22,14:20,0.515,0.291,0.530,0.488,0.456,0.239,0.210,north,4.8,No
2015/10/22,14:30,0.511,0.291,0.534,0.485,0.459,0.239,0.210,north,4.4,Yes
2015/10/22,14:40,0.516,0.291,0.528,0.488,0.455,0.239,0.209,north,3.5,No
2015/10/22,14:50,0.512,0.292,0.537,0.489,0.459,0.240,0.210,north,4.3,No
2015/10/22,15:00,0.517,0.291,0.530,0.488,0.457,0.238,0.208,north-northeast,3.4,No
2015/10/22,15:10,0.511,0.293,0.533,0.489,0.460,0.240,0.210,north,3.6,No
2015/10/22,15:20,0.517,0.290,0.531,0.488,0.457,0.240,0.209,north,3.0,No
2015/10/22,15:30,0.513,0.292,0.533,0.491,0.460,0.238,0.211,north,3.3,No
2015/10/22,15:40,0.518,0.290,0.533,0.486,0.457,0.239,0.208,north,3.8,No
2015/10/22,15:50,0.512,0.292,0.532,0.491,0.459,0.238,0.210,north-northwest,1.7,No
2015/10/22,16:00,0.514,0.291,0.532,0.487,0.458,0.241,0.210,north,2.1,No
2015/10/22,16:10,0.512,0.292,0.529,0.490,0.458,0.239,0.209,north,2.3,No
2015/10/22,16:20,0.513,0.291,0.533,0.486,0.457,0.240,0.209,north,2.7,No
2015/10/22,16:30,0.513,0.292,0.532,0.493,0.458,0.240,0.208,north-northeast,1.5,No
2015/10/22,16:40,0.514,0.291,0.532,0.485,0.458,0.242,0.209,northeast,2.5,No
2015/10/22,16:50,0.514,0.291,0.530,0.491,0.458,0.238,0.209,northeast,2.1,No
2015/10/22,17:00,0.513,0.292,0.532,0.487,0.457,0.241,0.209,north,1.4,No
2015/10/22,17:10,0.514,0.291,0.531,0.491,0.458,0.240,0.210,north-northwest,1.6,No
2015/10/22,17:20,0.512,0.290,0.532,0.486,0.456,0.239,0.210,north,1.8,No
2015/10/22,17:30,0.514,0.291,0.529,0.490,0.459,0.238,0.210,north,1.9,No
2015/10/22,17:40,0.512,0.293,0.534,0.489,0.458,0.240,0.209,north,1.9,No
2015/10/22,17:50,0.514,0.290,0.532,0.490,0.459,0.239,0.209,north,1.6,No
2015/10/22,18:00,0.512,0.293,0.534,0.488,0.456,0.239,0.209,north,1.3,No
2015/10/22,18:10,0.514,0.291,0.530,0.489,0.461,0.239,0.210,north,1.2,No
2015/10/22,18:20,0.511,0.291,0.533,0.487,0.456,0.239,0.209,north,1.4,No
2015/10/22,18:30,0.515,0.291,0.531,0.492,0.461,0.240,0.210,north,1.9,No
2015/10/22,18:40,0.511,0.293,0.532,0.488,0.456,0.240,0.208,north-northeast,1.6,No
2015/10/22,18:50,0.514,0.290,0.531,0.491,0.459,0.238,0.210,north,1.6,No
2015/10/22,19:00,0.513,0.292,0.534,0.490,0.454,0.240,0.210,north,1.7,No
2015/10/22,19:10,0.515,0.291,0.532,0.491,0.462,0.239,0.210,north,1.1,No
2015/10/22,19:20,0.514,0.292,0.533,0.490,0.455,0.239,0.211,north,1.7,No
2015/10/22,19:30,0.515,0.290,0.533,0.489,0.459,0.239,0.209,north,1.6,No
2015/10/22,19:40,0.512,0.291,0.532,0.490,0.456,0.240,0.210,north,2.2,No
2015/10/22,19:50,0.512,0.291,0.532,0.488,0.460,0.239,0.208,north,2.5,No
2015/10/22,20:00,0.512,0.291,0.533,0.492,0.457,0.239,0.210,north,2.0,No
2015/10/22,20:10,0.513,0.291,0.532,0.487,0.461,0.238,0.209,north,2.0,No
2015/10/22,20:20,0.514,0.290,0.530,0.492,0.458,0.239,0.209,north,1.4,No
2015/10/22,20:30,0.513,0.293,0.534,0.486,0.459,0.239,0.210,north-northwest,1.1,No
2015/10/22,20:40,0.515,0.291,0.530,0.491,0.456,0.240,0.208,north-northwest,0.9,No
2015/10/22,20:50,0.513,0.292,0.533,0.489,0.460,0.239,0.210,north,0.8,No
2015/10/22,21:00,0.514,0.291,0.530,0.490,0.457,0.241,0.209,north-northeast,1.5,No
2015/10/22,21:10,0.511,0.292,0.535,0.487,0.458,0.239,0.209,north,0.8,No
2015/10/22,21:20,0.515,0.291,0.531,0.490,0.458,0.239,0.208,north,1.3,No
2015/10/22,21:30,0.513,0.292,0.534,0.488,0.458,0.239,0.208,north-northwest,1.4,No
2015/10/22,21:40,0.515,0.291,0.531,0.490,0.459,0.238,0.211,north-northwest,1.6,No
2015/10/22,21:50,0.510,0.291,0.535,0.488,0.458,0.240,0.209,north,1.4,No
2015/10/22,22:00,0.514,0.291,0.529,0.491,0.460,0.239,0.210,north-northwest,1.1,No
2015/10/22,22:10,0.512,0.290,0.534,0.488,0.457,0.240,0.209,north-northeast,0.8,No
2015/10/22,22:20,0.515,0.291,0.530,0.489,0.459,0.239,0.210,-,CALM,No
2015/10/22,22:30,0.512,0.290,0.535,0.488,0.457,0.238,0.209,north,0.9,No
2015/10/22,22:40,0.514,0.294,0.531,0.489,0.459,0.239,0.209,north,0.6,No
2015/10/22,22:50,0.512,0.291,0.535,0.489,0.457,0.239,0.210,north-northwest,0.5,No
2015/10/22,23:00,0.513,0.292,0.531,0.488,0.461,0.239,0.209,north,0.6,No
2015/10/22,23:10,0.512,0.290,0.535,0.491,0.456,0.239,0.210,north,1.4,No
2015/10/22,23:20,0.516,0.291,0.532,0.488,0.462,0.239,0.208,north-northwest,0.6,No
2015/10/22,23:30,0.511,0.291,0.533,0.491,0.455,0.239,0.209,-,CALM,No
2015/10/22,23:40,0.516,0.292,0.530,0.486,0.461,0.239,0.210,north,0.6,No
2015/10/22,23:50,0.514,0.292,0.533,0.491,0.455,0.239,0.209,-,CALM,No
